This demonstration page uses our WeatherBlox Daily Observations layout. Learn more.

Left ArrowRight Arrow

Hourly Observations for April 17, 2018

Temp ( °F °C ) Dew Point ( °F °C ) Humidity (%) Winds ( mph kmh ) Pressure ( in mb ) Visibility ( mi km ) Precip ( " mm )
12:51 am 00:51 Clear 75 23.9 2 -16.7 6 6 NE 3 6 29.76 1008 10 16 0.00 0.00
1:51 am 01:51 Clear 73 22.8 4 -15.6 6 6 S 8 13 29.74 1007 10 16 0.00 0.00
2:27 am 02:27 Clear 72 22.2 6 -14.4 7 7 S 17 28 29.77 1008 10 16 0.00 0.00
2:51 am 02:51 Clear 72 22.2 4 -15.6 7 7 N 3 6 29.76 1008 10 16 0.00 0.00
3:51 am 03:51 Clear 67 19.4 6 -14.4 9 9 NNE 5 7 29.77 1008 10 16 0.00 0.00
4:51 am 04:51 Clear 63 17.2 6 -14.4 10 10 NW 8 13 29.78 1008 10 16 0.00 0.00
5:51 am 05:51 Sunny 65 18.3 5 -15 9 9 NW 7 11 29.80 1009 10 16 0.00 0.00
6:51 am 06:51 Sunny 66 18.9 7 -13.9 10 10 NNW 14 22 29.83 1010 10 16 0.00 0.00
7:51 am 07:51 Sunny 69 20.6 6 -14.4 8 8 WNW 13 20 29.85 1011 10 16 0.00 0.00
8:51 am 08:51 Sunny 72 22.2 5 -15 7 7 WNW 12 19 29.86 1011 10 16 0.00 0.00
9:51 am 09:51 Sunny 73 22.8 3 -16.1 6 6 WNW 13 20 29.86 1011 10 16 0.00 0.00
10:51 am 10:51 Sunny 76 24.4 6 -14.4 6 6 NW 16 26 29.84 1011 10 16 0.00 0.00
11:51 am 11:51 Sunny 77 25 10 -12.2 8 8 NNW 10 17 29.81 1010 10 16 0.00 0.00
12:51 pm 12:51 Sunny 80 26.7 11 -11.7 7 7 NW 16 26 29.77 1008 10 16 0.00 0.00
1:51 pm 13:51 Sunny 82 27.8 13 -10.6 7 7 NW 24 39 29.77 1008 10 16 0.00 0.00
2:51 pm 14:51 Sunny 80 26.7 15 -9.4 8 8 NNW 23 37 29.77 1008 10 16 0.00 0.00
3:51 pm 15:51 Sunny 78 25.6 15 -9.4 9 9 NW 26 43 29.77 1008 10 16 0.00 0.00
4:51 pm 16:51 Sunny 75 23.9 16 -8.9 10 10 NW 26 43 29.80 1009 10 16 0.00 0.00
5:51 pm 17:51 Sunny 73 22.8 17 -8.3 12 12 NW 24 39 29.81 1010 10 16 0.00 0.00
6:51 pm 18:51 Clear 68 20 15 -9.4 13 13 NW 21 33 29.84 1010 10 16 0.00 0.00
7:51 pm 19:51 Clear 65 18.3 15 -9.4 14 14 NW 17 28 29.86 1011 10 16 0.00 0.00
8:51 pm 20:51 Clear 63 17.2 13 -10.6 14 14 NW 15 24 29.88 1012 10 16 0.00 0.00
9:51 pm 21:51 Clear 61 16.1 11 -11.7 14 14 WNW 15 24 29.90 1013 10 16 0.00 0.00
10:51 pm 22:51 Clear 57 13.9 9 -12.8 15 15 NW 10 17 29.92 1013 10 16 0.00 0.00
11:51 pm 23:51 Clear 55 12.8 6 -14.4 14 14 WNW 8 13 29.94 1014 10 16 0.00 0.00

Powered by AerisWeather